When you browse on this site, cookies collect data to enhance your experience and personalize the content and advertising you see.
Visit our Privacy Policy to learn more. By continuing to use the site, you agree to this use of cookies and data.
  • en France
  • Liste des pays
  • À 7 jours
  • Température de l'eau
  • Carte météo
  • Widgets météo
  • user-avatar
    Se connecter

    Météo par heure à Kotonu

    Ce jour, 16 Septembre, Lundi

    Heure Température Précipitation Vent Pression Humidité
    00:00 +27°C° 0 mm 4 m/s 759 mmHg 87%
    01:00 +27°C° 0 mm 4 m/s 758 mmHg 87%
    02:00 +27°C° 0 mm 4 m/s 758 mmHg 88%
    03:00 +27°C° 0 mm 4 m/s 758 mmHg 89%
    04:00 +26°C° 0.1 mm 4 m/s 758 mmHg 89%
    05:00 +26°C° 0.1 mm 4 m/s 758 mmHg 89%
    06:00 +26°C° 0.1 mm 3 m/s 759 mmHg 90%
    07:00 +28°C° 0.1 mm 4 m/s 759 mmHg 82%
    08:00 +29°C° 0.1 mm 4 m/s 759 mmHg 75%
    09:00 +32°C° 0.1 mm 4 m/s 760 mmHg 68%
    10:00 +32°C° 0.2 mm 4 m/s 759 mmHg 68%
    11:00 +32°C° 0.2 mm 5 m/s 759 mmHg 67%
    12:00 +33°C° 0.2 mm 5 m/s 758 mmHg 67%
    13:00 +33°C° 0.4 mm 5 m/s 757 mmHg 67%
    14:00 +32°C° 0.4 mm 5 m/s 757 mmHg 67%
    15:00 +32°C° 0.4 mm 6 m/s 756 mmHg 67%
    16:00 +30°C° 0 mm 6 m/s 756 mmHg 72%
    17:00 +29°C° 0 mm 5 m/s 757 mmHg 76%
    18:00 +28°C° 0 mm 5 m/s 757 mmHg 81%
    19:00 +28°C° 0 mm 5 m/s 757 mmHg 82%
    20:00 +28°C° 0 mm 5 m/s 758 mmHg 84%
    21:00 +28°C° 0 mm 5 m/s 759 mmHg 86%
    22:00 +27°C° 0.1 mm 5 m/s 759 mmHg 86%
    23:00 +27°C° 0.1 mm 5 m/s 759 mmHg 86%

    Demain, 17 Septembre, Mardi

    Heure Température Précipitation Vent Pression Humidité
    00:00 +27°C° 0.1 mm 5 m/s 759 mmHg 87%
    01:00 +27°C° 0.1 mm 5 m/s 758 mmHg 86%
    02:00 +27°C° 0.1 mm 5 m/s 758 mmHg 86%
    03:00 +27°C° 0.1 mm 6 m/s 758 mmHg 86%
    04:00 +27°C° 0 mm 5 m/s 758 mmHg 86%
    05:00 +27°C° 0 mm 5 m/s 758 mmHg 86%
    06:00 +27°C° 0 mm 5 m/s 759 mmHg 85%
    07:00 +28°C° 0 mm 5 m/s 759 mmHg 80%
    08:00 +29°C° 0 mm 5 m/s 759 mmHg 75%
    09:00 +30°C° 0 mm 6 m/s 759 mmHg 70%
    10:00 +30°C° 0.4 mm 6 m/s 759 mmHg 71%
    11:00 +30°C° 0.4 mm 6 m/s 758 mmHg 73%
    12:00 +30°C° 0.4 mm 6 m/s 758 mmHg 74%
    13:00 +29°C° 0.5 mm 6 m/s 757 mmHg 77%
    14:00 +29°C° 0.5 mm 6 m/s 757 mmHg 79%
    15:00 +28°C° 0.5 mm 6 m/s 756 mmHg 82%
    16:00 +28°C° 0.3 mm 5 m/s 757 mmHg 83%
    17:00 +27°C° 0.3 mm 4 m/s 757 mmHg 84%
    18:00 +27°C° 0.3 mm 3 m/s 757 mmHg 85%
    19:00 +27°C° 0.2 mm 4 m/s 758 mmHg 86%
    20:00 +27°C° 0.2 mm 4 m/s 758 mmHg 86%
    21:00 +27°C° 0.2 mm 4 m/s 759 mmHg 86%
    22:00 +27°C° 0 mm 4 m/s 758 mmHg 86%
    23:00 +27°C° 0 mm 4 m/s 758 mmHg 85%

    Après-demain, 18 Septembre, Mercredi

    Heure Température Précipitation Vent Pression Humidité
    00:00 +27°C° 0 mm 4 m/s 758 mmHg 85%
    01:00 +27°C° 0 mm 5 m/s 758 mmHg 85%
    02:00 +27°C° 0 mm 5 m/s 757 mmHg 86%
    03:00 +27°C° 0 mm 6 m/s 757 mmHg 86%
    04:00 +26°C° 0.1 mm 5 m/s 757 mmHg 87%
    05:00 +26°C° 0.1 mm 5 m/s 758 mmHg 88%
    06:00 +26°C° 0.1 mm 5 m/s 758 mmHg 89%
    07:00 +26°C° 0.9 mm 4 m/s 759 mmHg 88%
    08:00 +27°C° 0.9 mm 4 m/s 759 mmHg 87%
    09:00 +27°C° 0.9 mm 4 m/s 759 mmHg 85%
    10:00 +27°C° 0.3 mm 4 m/s 759 mmHg 83%
    11:00 +28°C° 0.3 mm 4 m/s 758 mmHg 80%
    12:00 +28°C° 0.3 mm 5 m/s 758 mmHg 77%
    13:00 +29°C° 0.1 mm 5 m/s 758 mmHg 76%
    14:00 +29°C° 0.1 mm 5 m/s 757 mmHg 74%
    15:00 +29°C° 0.1 mm 6 m/s 757 mmHg 73%
    16:00 +28°C° 0.8 mm 5 m/s 757 mmHg 78%
    17:00 +28°C° 0.8 mm 5 m/s 758 mmHg 83%
    18:00 +27°C° 0.8 mm 5 m/s 758 mmHg 88%
    19:00 +26°C° 4.7 mm 5 m/s 758 mmHg 89%
    20:00 +26°C° 4.7 mm 6 m/s 758 mmHg 91%
    21:00 +26°C° 4.7 mm 7 m/s 759 mmHg 93%
    22:00 +26°C° 0.7 mm 6 m/s 759 mmHg 93%
    23:00 +26°C° 0.7 mm 5 m/s 759 mmHg 92%

    19 Septembre, Jeudi

    Heure Température Précipitation Vent Pression Humidité
    00:00 +26°C° 0.7 mm 5 m/s 759 mmHg 92%
    01:00 +26°C° 0.1 mm 5 m/s 758 mmHg 92%
    02:00 +26°C° 0.1 mm 5 m/s 758 mmHg 91%
    03:00 +26°C° 0.1 mm 5 m/s 758 mmHg 91%
    04:00 +26°C° 0 mm 4 m/s 758 mmHg 92%
    05:00 +25°C° 0 mm 4 m/s 759 mmHg 93%
    06:00 +25°C° 0 mm 3 m/s 759 mmHg 93%
    07:00 +27°C° 0 mm 3 m/s 759 mmHg 87%
    08:00 +28°C° 0 mm 2 m/s 759 mmHg 80%
    09:00 +30°C° 0 mm 2 m/s 760 mmHg 74%
    10:00 +31°C° 0.1 mm 2 m/s 759 mmHg 71%
    11:00 +32°C° 0.1 mm 2 m/s 758 mmHg 68%
    12:00 +34°C° 0.1 mm 2 m/s 758 mmHg 65%
    13:00 +32°C° 0.3 mm 2 m/s 757 mmHg 67%
    14:00 +33°C° 0.3 mm 3 m/s 757 mmHg 69%
    15:00 +32°C° 0.3 mm 4 m/s 756 mmHg 71%
    16:00 +30°C° 0.3 mm 4 m/s 757 mmHg 75%
    17:00 +29°C° 0.3 mm 4 m/s 757 mmHg 79%
    18:00 +28°C° 0.3 mm 4 m/s 757 mmHg 84%
    19:00 +28°C° 0 mm 4 m/s 758 mmHg 84%
    20:00 +28°C° 0 mm 4 m/s 758 mmHg 85%
    21:00 +28°C° 0 mm 4 m/s 758 mmHg 85%
    22:00 +27°C° 0 mm 4 m/s 758 mmHg 86%
    23:00 +27°C° 0 mm 4 m/s 759 mmHg 87%

    20 Septembre, Vendredi

    Heure Température Précipitation Vent Pression Humidité
    00:00 +27°C° 0 mm 4 m/s 759 mmHg 88%
    01:00 +27°C° 0 mm 4 m/s 758 mmHg 89%
    02:00 +27°C° 0 mm 4 m/s 758 mmHg 89%
    03:00 +27°C° 0 mm 4 m/s 758 mmHg 89%
    04:00 +26°C° 0 mm 4 m/s 758 mmHg 89%
    05:00 +26°C° 0 mm 4 m/s 758 mmHg 90%
    06:00 +26°C° 0 mm 3 m/s 759 mmHg 90%
    07:00 +28°C° 0.1 mm 3 m/s 759 mmHg 83%
    08:00 +29°C° 0.1 mm 3 m/s 759 mmHg 76%
    09:00 +31°C° 0.1 mm 3 m/s 760 mmHg 70%
    10:00 +32°C° 0.1 mm 4 m/s 759 mmHg 67%
    11:00 +33°C° 0.1 mm 4 m/s 758 mmHg 64%
    12:00 +33°C° 0.1 mm 5 m/s 758 mmHg 62%
    13:00 +33°C° 0 mm 5 m/s 757 mmHg 63%
    14:00 +33°C° 0 mm 5 m/s 757 mmHg 64%
    15:00 +32°C° 0 mm 6 m/s 756 mmHg 64%
    16:00 +30°C° 0 mm 6 m/s 757 mmHg 70%
    17:00 +29°C° 0 mm 6 m/s 757 mmHg 75%
    18:00 +28°C° 0 mm 6 m/s 757 mmHg 80%
    19:00 +28°C° 0 mm 6 m/s 758 mmHg 81%
    20:00 +28°C° 0 mm 5 m/s 758 mmHg 82%
    21:00 +28°C° 0 mm 5 m/s 758 mmHg 84%
    22:00 +28°C° 0 mm 5 m/s 758 mmHg 84%
    23:00 +27°C° 0 mm 4 m/s 758 mmHg 85%

    21 Septembre, Samedi

    Heure Température Précipitation Vent Pression Humidité
    00:00 +27°C° 0 mm 4 m/s 758 mmHg 86%
    01:00 +27°C° 0.1 mm 4 m/s 758 mmHg 86%
    02:00 +27°C° 0.1 mm 4 m/s 758 mmHg 87%
    03:00 +27°C° 0.1 mm 4 m/s 757 mmHg 87%
    04:00 +27°C° 0.8 mm 4 m/s 758 mmHg 88%
    05:00 +27°C° 0.8 mm 4 m/s 758 mmHg 88%
    06:00 +26°C° 0.8 mm 4 m/s 758 mmHg 89%
    07:00 +28°C° 0.3 mm 3 m/s 759 mmHg 82%
    08:00 +29°C° 0.3 mm 2 m/s 759 mmHg 76%
    09:00 +30°C° 0.3 mm 2 m/s 759 mmHg 70%
    10:00 +31°C° 0 mm 2 m/s 759 mmHg 67%
    11:00 +33°C° 0 mm 3 m/s 758 mmHg 64%
    12:00 +33°C° 0 mm 3 m/s 758 mmHg 61%
    13:00 +33°C° 0 mm 4 m/s 757 mmHg 62%
    14:00 +33°C° 0 mm 4 m/s 757 mmHg 63%
    15:00 +33°C° 0 mm 5 m/s 756 mmHg 64%
    16:00 +30°C° 0 mm 5 m/s 757 mmHg 69%
    17:00 +29°C° 0 mm 5 m/s 757 mmHg 74%
    18:00 +28°C° 0 mm 5 m/s 757 mmHg 79%
    19:00 +28°C° 0 mm 5 m/s 757 mmHg 81%
    20:00 +28°C° 0 mm 5 m/s 758 mmHg 83%
    21:00 +27°C° 0 mm 5 m/s 758 mmHg 84%
    22:00 +27°C° 0 mm 4 m/s 758 mmHg 85%
    23:00 +27°C° 0 mm 4 m/s 758 mmHg 86%
    Voir plus